Location: Piolenc
(44.1794°N, 4.7641°E)
Time: 23:50:41
(UTC+00:00)

Cosmos 2278 Rocket - Pass Details

Date: 27 January 2021
Orbit: 840 x 847 km, 71.0° (Epoch: 27 February)

Event Time Altitude Azimuth Distance (km) Brightness Sun altitude
Exits shadow 05:18:45 19° 229° (SW) 1,897 3.7 -18.9°
Drops below altitude 10° 05:21:05 10° 208° (SSW) 2,460 4.4 -18.4°
Sets 05:23:58 0° 194° (SSW) 3,389 5.3 -17.9°
